Kahului, HI

12:38 PM HST on July 29, 2016 (GMT -1000)
Kahului

Weather History for PHOG - April, 2013

Change the Weather History Date:

Sunday, April 7, 2013

  Actual Average Record
Temperature  
Mean Temperature 76 °F 74 °F  
Max Temperature 88 °F 82 °F 92 °F (1950)
Min Temperature 64 °F 66 °F 55 °F (1985)
Degree Days  
Heating Degree Days 0 0  
Month to date heating degree days 0 0  
Since 1 July heating degree days 0 0  
Cooling Degree Days 11 9  
Month to date cooling degree days 53 63  
Year to date cooling degree days 719 717  
Growing Degree Days 24 (Base 50)    
Moisture  
Dew Point 68 °F    
Average Humidity 81    
Maximum Humidity 100    
Minimum Humidity 61    
Precipitation  
Precipitation 0.00 in 0.06 in 3.95 in (1989)
Month to date precipitation T 0.48  
Year to date precipitation 6.13 7.69  
Snow  
Snow 0.00 in - - ()
Month to date snowfall 0.0  
Since 1 July snowfall 0.0  
Snow Depth 0.00 in    
Sea Level Pressure  
Sea Level Pressure 30.13 in    
Wind  
Wind Speed 8 mph (East)    
Max Wind Speed 21 mph    
Max Gust Speed 28 mph    
Visibility 10 miles    
Events      
T = Trace of Precipitation, MM = Missing Value Source: NWS Daily Summary

Daily Weather History Graph

Daily Weather History Graph

Search for Another Location

Airport or City:

Trip Planner

Search our weather history database for the weather conditions in past years. The results will help you decide how hot, cold, wet, or windy it might be!

Date:

Astronomy

Apr. 07, 2013 Rise Set
Actual Time 6:13 AM HST 6:42 PM HST
Civil Twilight 5:50 AM HST 7:04 PM HST
Nautical Twilight 5:24 AM HST 7:30 PM HST
Astronomical Twilight 4:58 AM HST 7:57 PM HST
Moon 4:19 AM HST (4/7) 4:39 PM HST (4/7)
Length of Visible Light 13h 13m
Length of Day
12h 29m
Waning Crescent, 7% of the Moon is Illuminated
Apr 7
Waning Crescent
Apr 9
New
Apr 18
First Quarter
Apr 25
Full
May 2
Last Quarter

Hourly Weather History & Observations

Time (HST) Temp. Heat Index Dew Point Humidity Pressure Visibility Wind Dir Wind Speed Gust Speed Precip Events Conditions
12:54 AM 66.9 °F - 66.9 °F 100% 30.16 in 10.0 mi Calm Calm - N/A   Clear
1:54 AM 66.9 °F - 66.0 °F 97% 30.14 in 10.0 mi SE 3.5 mph - N/A   Clear
2:54 AM 66.0 °F - 66.0 °F 100% 30.12 in 10.0 mi East 3.5 mph - N/A   Clear
3:54 AM 66.0 °F - 64.9 °F 96% 30.12 in 10.0 mi SE 4.6 mph - N/A   Clear
4:54 AM 64.9 °F - 64.9 °F 100% 30.13 in 10.0 mi SSE 5.8 mph - N/A   Clear
5:54 AM 64.9 °F - 64.9 °F 100% 30.15 in 10.0 mi SSE 6.9 mph - N/A   Partly Cloudy
6:54 AM 68.0 °F - 66.9 °F 96% 30.17 in 10.0 mi SE 4.6 mph - N/A   Scattered Clouds
7:54 AM 70.0 °F - 68.0 °F 93% 30.18 in 10.0 mi SSW 3.5 mph - N/A   Scattered Clouds
8:54 AM 78.1 °F - 70.0 °F 76% 30.20 in 10.0 mi NE 4.6 mph - N/A   Mostly Cloudy
9:54 AM 81.0 °F 84.1 °F 69.1 °F 67% 30.19 in 10.0 mi ENE 6.9 mph - N/A   Mostly Cloudy
10:54 AM 82.0 °F 86.3 °F 71.1 °F 69% 30.19 in 10.0 mi ENE 12.7 mph 20.7 mph N/A   Scattered Clouds
11:54 AM 82.9 °F 87.5 °F 71.1 °F 67% 30.16 in 10.0 mi ENE 17.3 mph 26.5 mph N/A   Scattered Clouds
12:54 PM 84.9 °F 89.4 °F 70.0 °F 61% 30.13 in 10.0 mi ENE 18.4 mph - N/A   Scattered Clouds
1:54 PM 84.9 °F 90.1 °F 71.1 °F 63% 30.10 in 10.0 mi ENE 18.4 mph 25.3 mph N/A   Scattered Clouds
2:54 PM 84.0 °F 88.4 °F 70.0 °F 63% 30.09 in 10.0 mi ENE 17.3 mph 23.0 mph N/A   Scattered Clouds
3:54 PM 84.0 °F 88.4 °F 70.0 °F 63% 30.09 in 10.0 mi NE 17.3 mph 21.9 mph N/A   Scattered Clouds
4:54 PM 81.0 °F 84.1 °F 69.1 °F 67% 30.09 in 10.0 mi NE 18.4 mph - N/A   Partly Cloudy
5:54 PM 79.0 °F - 68.0 °F 69% 30.08 in 10.0 mi NE 11.5 mph - N/A   Partly Cloudy
6:54 PM 75.9 °F - 66.9 °F 74% 30.10 in 10.0 mi ENE 9.2 mph - N/A   Clear
7:54 PM 73.9 °F - 66.9 °F 79% 30.12 in 10.0 mi ENE 11.5 mph - N/A   Clear
8:54 PM 73.0 °F - 69.1 °F 87% 30.13 in 10.0 mi ENE 12.7 mph - N/A   Clear
9:54 PM 73.0 °F - 68.0 °F 84% 30.14 in 10.0 mi ENE 10.4 mph - N/A   Clear
10:54 PM 70.0 °F - 66.0 °F 87% 30.13 in 10.0 mi SE 6.9 mph - N/A   Clear
11:54 PM 66.9 °F - 66.0 °F 97% 30.12 in 10.0 mi Calm Calm - N/A   Clear